Cloud_Cover
77 98 100 100 100 100 100 100 100 100 100 100 100 100 100 100 100 100 100 100 100 100 100 100 88 100 100 100 100 97 100 100 100 100 100 100 100 100 100 100 100 100 100
100 100 98 99 100 100 100 100 100 100 100 100 100 100 100 100 100 100 100 100 100 100 91 85 97 100 99 99 100 100 100 100 100 100 98 100 100 100 100 100 100 100 100
100 100 85 75 100 100 100 96 100 100 100 100 100 100 100 100 96 95 100 100 100 100 100 100 100 100 100 100 100 100 100 93 100 100 100 100 97 100 100 100 100 100 100
100 100 78 100 100 100 94 100 99 24 75 100 100 100 100 99 100 100 100 100 100 100 100 100 100 100 86 95 100 100 100 100 100 100 100 100 100 100 100 100 100 100 98
85 99 95 100 100 100 100 100 100 100 100 100 100 100 100 100 100 100 100 100 100 100 100 100 100 100 100 100 100 100 100 100 100 100 100 100 100 100 100 100 100 100 100
100 100 100 100 100 100 100 100 100 100 100 100 100 100 100 100 100 100 100 100 100 99 98 49 80 100 99 100 100 100 100 100 100 100 100 100 100 100 100 100 100 100 95
100 100 100 100 100 100 100 100 100 100 100 100 100 100 100 100 100 84 6 5 5 5 11 28 97 100 100 100 100 100 99 88 100 100 100 100 100 100 100 100 100 59 91
30 96 100 100 100 100 100 100 96 95 76 35 53 6 19 29 54 71 96 83 98 100 100 96 100 100 100 100 100 55 5 5 5 18 63 100 100 100 84 100 78 100 100
97 69 58 22 76 100 100 100 61 30 99 90 98 70 79 91 69 25 96 100 100 94 62 51 100 100 100 100 100 7 5 3 3 3 5 5 9 31 96 97 76 100 100
87 100 100 100 100 100 100 100 100 100 98 92 100 100 100 27 21 57 100 100 100 100 49 89 100 100 100 100 26 5 5 0 5 5 50 8 27 87 100 78 97 100 100
92 98 100 100 100 100 100 100 100 100 100 100 100 100 98 100 100 84 100 100 100 92 100 79 99 100 100 64 5 0 5 5 5 5 5 13 6 8 36 80 100 98 100
100 100 100 100 100 100 100 100 100 100 100 100 100 100 100 100 87 55 100 100 94 23 19 13 100 100 86 5 10 2 5 5 8 5 5 5 13 90 100 100 100 99 97
66 100 100 100 100 100 100 100 96 96 100 100 100 100 100 100 100 100 100 100 100 98 95 5 36 19 5 11 25 5 5 9 52 5 5 39 91 100 100 100 100 100 100
100 99 68 100 100 100 100 100 100 100 100 100 100 100 100 100 100 100 100 100 100 100 100 38 5 5 5 5 6 68 66 59 61 20 37 98 94 98 88 69 85 100 99
84 35 100 100 99 100 100 100 100 100 100 100 100 100 100 100 100 100 100 100 100 100 100 91 12 8 11 5 37 100 100 87 100 99 53 52 94 100 100 91 77 77 85
98 21 73 100 100 100 100 100 100 100 100 100 100 100 100 100 99 100 100 100 100 100 100 100 99 100 94 39 95 100 100 99 98 98 68 73 72 68 97 96 100 86 84
5 5 5 86 100 100 100 100 100 100 100 100 100 100 100 100 100 100 100 100 100 100 100 100 96 96 100 87 100 100 100 100 100 100 100 70 99 100 77 89 76 84 79
20 6 22 68 100 100 100 100 100 100 100 100 100 100 100 100 100 100 100 100 100 100 100 100 95 100 85 99 100 100 100 100 100 100 94 80 88 100 99 94 97 96 89
78 71 33 97 100 100 100 100 100 100 100 100 100 100 100 100 100 100 100 100 100 100 100 100 100 99 94 100 100 100 100 100 100 95 63 88 100 99 100 100 100 100 97
100 97 100 100 100 100 100 100 100 100 100 100 100 100 100 100 100 100 100 100 100 100 100 100 100 97 100 100 100 100 100 100 100 100 97 81 92 100 100 100 100 98 76
92 100 100 100 100 100 100 100 100 100 100 100 100 100 100 100 100 100 100 100 100 100 100 100 100 100 100 100 100 100 100 100 100 100 100 100 100 100 100 100 100 85 86
100 97 100 100 100 100 100 100 100 100 100 100 100 100 100 100 100 100 100 100 100 100 100 100 100 100 100 100 100 100 100 100 98 96 99 99 100 100 100 97 98 100 100
91 100 100 100 100 100 100 100 100 100 100 100 100 100 100 100 100 100 100 100 100 100 100 100 100 100 100 100 100 100 100 100 100 100 100 95 99 93 95 100 100 100 100
87 100 99 81 86 98 100 100 100 100 100 100 100 100 100 100 100 100 100 100 100 100 100 100 100 100 100 100 100 100 100 100 100 100 100 100 100 100 100 100 100 100 100
98 86 97 92 97 100 100 100 100 100 100 100 100 100 100 100 100 100 100 100 100 100 100 100 100 100 100 100 100 100 100 100 82 97 91 93 98 100 100 100 100 100 100
96 100 100 94 83 100 100 100 100 100 100 100 100 100 100 100 100 100 100 100 100 100 100 100 100 100 100 100 100 100 100 100 100 100 96 89 100 100 100 100 100 100 89